Flag for Romania Weather past 2 weeks in Timișoara, Romania

Now
36 °F

Clear.


Feels Like: 31 °F
Forecast: 35 / 50 °F
Wind: 6 mph from East

Location: Timisoara Airport

Current Time: Dec 19, 2014 at 11:56:45 PM

Latest Report: Dec 19, 2014 at 11:30 PM


Visibility: 5 mi

Pressure: 30.07 "Hg

Humidity: 100%

Dew point: 36 °F

Location of TimișoaraLocation

Historic Weather in Timișoara — Graph

°F

Timișoara temperature yesterday

Maximum temperature yesterday: 50 °F (at 2:00 PM)
Minimum temperature yesterday: 37 °F (at 12:00 AM)
Average temperature yesterday: 42 °F

Past Weeks' High & Low Weather Summary

 TemperatureHumidityPressure
High52 °F (Dec 13, 2:00 PM)100% (Dec 4, 10:00 PM)30.24 "Hg (Dec 4, 10:00 PM)
Low28 °F (Dec 12, 5:00 AM)58% (Dec 13, 2:30 PM)29.80 "Hg (Dec 17, 4:00 AM)
Average41 °F92%30.08 "Hg
* Reported Dec 4 10:00 PM — Dec 19 10:30 PM, Timișoara, Weather by CustomWeather, © 2014

Note: Actual official high and low records may vary slightly from our data, if they occured in-between our weather recording intervals... More about our weather records

Advertising

Timișoara weather history for previous 24 hours

 ConditionsComfort  
Time TempWeatherWind HumidityBarometerVisibility
10:30 PM
Dec 19
36 °FFog.5 mph93%30.09 "Hg3 mi
10:00 PM37 °FFog.2 mph93%30.09 "Hg3 mi
9:30 PM37 °FClear.3 mph100%30.09 "Hg5 mi
9:00 PM37 °FClear.3 mph100%30.09 "Hg4 mi
8:30 PM37 °FFog.6 mph100%30.09 "Hg3 mi
8:00 PM39 °FFog.3 mph100%30.09 "Hg3 mi
7:30 PM43 °FClear.6 mph100%30.09 "Hg4 mi
7:00 PM39 °FClear.3 mph100%30.09 "Hg4 mi
6:30 PM41 °FClear.5 mph93%30.09 "Hg4 mi
6:00 PM43 °FClear.3 mph100%30.09 "Hg5 mi
5:30 PM46 °FClear.3 mph87%30.09 "Hg5 mi
5:00 PM48 °FClear.5 mph82%30.09 "Hg10 mi
4:30 PM48 °FPassing clouds.6 mph82%30.09 "HgN/A
4:00 PM50 °FScattered clouds.6 mph76%30.09 "HgN/A
3:30 PM50 °FScattered clouds.6 mph76%30.09 "HgN/A
3:00 PM50 °FBroken clouds.6 mph76%30.12 "HgN/A
2:30 PM50 °FPartly sunny.7 mph71%30.09 "HgN/A
2:00 PM50 °FPartly sunny.9 mph71%30.12 "HgN/A
1:30 PM50 °FPartly sunny.8 mph76%30.12 "HgN/A
1:00 PM48 °FSunny.6 mph82%30.15 "Hg10 mi
12:30 PM48 °FSunny.8 mph82%30.15 "Hg10 mi
12:00 PM48 °FPassing clouds.6 mph82%30.15 "HgN/A
11:30 AM45 °FSunny.8 mph93%30.15 "Hg10 mi
11:00 AM45 °FClear.5 mph87%30.15 "Hg5 mi
10:30 AM43 °FClear.6 mph93%30.18 "Hg5 mi
10:00 AM41 °FClear.7 mph100%30.15 "Hg5 mi
9:30 AM41 °FClear.6 mph93%30.18 "Hg4 mi
9:00 AM39 °FFog.6 mph100%30.15 "Hg3 mi
8:30 AM39 °FFog.5 mph100%30.15 "Hg2 mi
8:00 AM37 °FFog.5 mph100%30.15 "Hg2 mi
7:30 AM36 °FFog.6 mph100%30.15 "Hg2 mi
7:00 AM36 °FFog.5 mph93%30.15 "Hg1 mi
6:30 AM34 °FFog.6 mph100%30.15 "Hg1 mi
6:00 AM34 °FFog.5 mph100%30.15 "Hg1 mi
5:30 AM37 °FFog.6 mph93%30.15 "Hg1 mi
5:00 AM37 °FFog.5 mph93%30.15 "Hg1 mi
4:30 AM39 °FFog.5 mph100%30.15 "Hg1 mi
4:00 AM41 °FFog.3 mph93%30.15 "Hg2 mi
3:30 AM39 °FFog.5 mph100%30.15 "Hg2 mi
3:00 AM39 °FFog.5 mph100%30.18 "Hg1 mi
2:30 AM39 °FFog.5 mph100%30.15 "Hg1 mi
2:00 AM39 °FFog.3 mph100%30.15 "Hg1 mi
1:30 AM39 °FFog.1 mph100%30.15 "Hg1 mi
1:00 AM39 °FFog.1 mph93%30.15 "Hg1 mi
12:30 AM37 °FFog.3 mph100%30.15 "Hg1 mi
12:00 AM39 °FFog.3 mph100%30.15 "Hg2 mi
11:30 PM
Dec 18
41 °FFog.5 mph93%30.15 "Hg2 mi
11:00 PM41 °FFog.5 mph100%30.15 "Hg2 mi
Weather by CustomWeather, © 2014

See weather overviewHow to use our weather pages